Location: Unspecified
(0.0000°N, 0.0000°E)
Time: 09:28:56
(UTC+00:00)

ARIANE 2 DEB - Pass Details

Date: 12 March 2026
Orbit: 561 x 35705 km, 7.7° (Epoch: 19 April)

Event Time Altitude Azimuth Distance (km) Brightness Sun altitude
Rises 20:17:57 0° 257° (WSW) 4,410 ? -32.0°
Reaches altitude 10° 20:19:41 10° 254° (WSW) 3,935 ? -32.5°
Enters shadow 20:53:40 47° 101° (ESE) 10,871 ? -40.9°
Exits shadow 22:03:44 36° 92° (E) 24,733 ? -58.4°
Maximum altitude 04:24:40 75° 59° (ENE) 26,120 ? -26.2°
Drops below altitude 10° 06:19:18 10° 81° (E) 8,575 ? 2.4°
Sets 06:23:00 0° 82° (E) 8,503 ? 3.4°
